Weather observations for the past three days for
Caro, Tuscola Area Airport
Imperial (Metric)
Date Time (edt) Wind (mph) Vis. (mi.) Weather Sky Cond. Temperature (ºF) Relative Humidity Wind Chill (°F) Heat Index (°F) Pressure Precipitation (in)
Air Dwpt 6 hour altimeter (in) sea level (mb) 1 hr 3 hr 6 hr
Max. Min.
16 06:15 Calm 4.00 Heavy Rain SCT050 BKN065 OVC080 68.4 68 99% 29.68 0.0
16 05:55 Calm 7.00 Rain SCT047 BKN050 OVC120 68.9 68.4 98% 29.67 0.0
16 05:35 W 5 10.00 Rain SCT046 BKN060 BKN075 69.8 69.4 99% 29.67 0.0
16 05:15 NW 9 10.00 Light Rain SCT050 BKN065 OVC120 71.2 70.7 98% 29.67 0.0
16 04:55 NW 9 10.00 Light Rain SCT043 BKN048 OVC070 72.9 72.5 99% 29.66 0.0
16 04:35 N 7 5.00 Rain SCT041 BKN050 OVC110 73.4 72.7 98% 29.67 0.0
16 04:15 NW 6 5.00 Rain SCT042 BKN050 OVC110 73.4 72.9 98% 29.7 0.0
16 03:55 W 6 5.00 Heavy Rain SCT048 BKN055 BKN090 73.4 72.9 98% 29.7 0.0
16 03:35 W 6 7.00 Rain SCT060 SCT075 BKN100 72.9 72.5 99% 29.67 0.0
16 03:15 W 3 10.00 Light Rain SCT110 73.2 72.5 98% 29.66 0.0
16 02:55 W 3 10.00 Light Rain SCT120 73.2 72.5 98% 29.66 0.0
16 02:35 S 5 10.00 Light Rain CLR 73.4 73 99% 29.67 0.0
16 02:15 S 3 10.00 Light Rain CLR 73.6 73.2 99% 29.68 0.0
16 01:55 SW 5 10.00 Light Rain CLR 74.1 73.6 80.1 72.9 98% 29.7 0.0
16 01:35 S 7 10.00 Light Rain CLR 74.7 73.4 96% 29.71 0.0
16 01:15 SW 5 10.00 Light Rain CLR 73.8 73.4 99% 29.72 0.0
16 00:55 SW 5 10.00 Fair CLR 74.8 73.4 95% 29.71 0.0
16 00:35 S 3 10.00 Fair CLR 73.8 73.4 99% 29.72 0.0
16 00:15 Calm 10.00 Fair CLR 73.6 73.4 99% 29.72 0.0
15 23:55 SW 3 10.00 Fair CLR 73.6 73.4 99% 29.72 0.0
15 23:35 SW 3 10.00 Fair CLR 73.4 73 99% 29.72 0.0
15 23:15 SW 5 10.00 Fair CLR 73.9 73.4 98% 29.74 0.0
15 22:55 Calm 10.00 Fair CLR 73.2 72.7 98% 29.72 0.0
15 22:35 Calm 10.00 Fair CLR 73.6 73 98% 29.73 0.0
15 22:15 Calm 10.00 Fair CLR 73.6 73.2 99% 29.75 0.0
15 21:55 Calm 10.00 Fair CLR 74.1 73.6 98% 29.75 0.0
15 21:35 Calm 10.00 Fair CLR 73 72.5 98% 29.75 0.0
15 21:15 Calm 10.00 Fair CLR 75 74.5 98% 73 29.74 0.0
15 20:55 Calm 10.00 Fair CLR 77 74.8 93% 78 29.74 0.0
15 20:35 Calm 10.00 Fair CLR 79 74.7 87% 83 29.74 0.0
15 20:15 S 3 10.00 Fair CLR 79 74.7 87% 83 29.74 0.0
15 19:55 S 5 10.00 Fair CLR 80.6 73.4 83.7 80.2 79% 85 29.74 0.0
15 19:35 S 6 10.00 Fair CLR 81.3 73.6 77% 87 29.75 0.0
15 19:15 SW 10 10.00 Fair CLR 81.5 72.3 74% 86 29.76 0.0
15 18:55 SW 10 10.00 Fair CLR 81.5 72.9 75% 87 29.77 0.0
15 18:35 SW 9 10.00 Fair CLR 82.4 73.2 74% 88 29.77 0.0
15 18:15 SW 9 10.00 Partly Cloudy SCT031 81.9 72.5 73% 87 29.77 0.0
15 17:55 SW 12 G 16 10.00 Mostly Cloudy SCT033 BKN039 83.3 72.5 70% 89 29.78 0.0
15 17:35 W 7 10.00 Partly Cloudy SCT035 SCT040 83.3 72.7 70% 89 29.77 0.0
15 17:15 SW 9 10.00 Partly Cloudy SCT033 82.2 72 71% 87 29.78 0.0
15 16:55 SW 9 10.00 Mostly Cloudy BKN033 82.4 72.7 73% 88 29.79 0.0
15 16:35 SW 13 G 18 10.00 Partly Cloudy SCT031 82.8 71.6 69% 88 29.79 0.0
15 16:15 SW 10 G 16 10.00 Fair CLR 83.1 71.6 68% 88 29.8 0.0
15 15:55 SW 12 G 17 10.00 Fair CLR 82.6 71.2 69% 87 29.81 0.0
15 15:35 SW 7 10.00 Partly Cloudy SCT029 82.6 72.3 71% 88 29.81 0.0
15 15:15 SW 10 G 17 10.00 Fair CLR 81.7 70.3 69% 86 29.82 0.0
15 14:55 SW 8 10.00 Fair CLR 81.5 70.2 69% 85 29.82 0.0
15 14:35 SW 10 10.00 Fair CLR 80.8 69.1 68% 84 29.83 0.0
15 14:15 SW 9 10.00 Fair CLR 81 69.8 69% 84 29.84 0.0
15 13:55 W 8 10.00 Fair CLR 80.2 68.5 80.6 67.1 68% 83 29.84 0.0
15 13:35 SW 7 10.00 Partly Cloudy SCT024 80.2 70.2 71% 84 29.85 0.0
15 13:15 SW 10 10.00 Partly Cloudy SCT024 78.6 70 75% 81 29.85 0.0
15 12:55 SW 8 10.00 Partly Cloudy SCT024 SCT110 78.8 70 74% 81 29.85 0.0
15 12:35 S 6 10.00 Partly Cloudy SCT021 SCT110 77.7 70.9 80% 80 29.84 0.0
15 12:15 SW 9 10.00 Partly Cloudy SCT019 SCT120 78.1 70.9 79% 80 29.85 0.0
15 11:55 SW 7 10.00 Fair CLR 76.1 70.7 83% 77 29.85 0.0
15 11:35 W 5 10.00 Fair CLR 74.3 70.7 89% 29.85 0.0
15 11:15 Calm 10.00 Fair CLR 72.5 70.2 92% 29.84 0.0
15 10:55 Calm 10.00 Partly Cloudy SCT110 71.2 70.9 99% 29.84 0.0
15 10:35 S 5 10.00 Mostly Cloudy SCT038 BKN100 70 69.4 98% 29.84 0.0
15 10:15 SW 5 10.00 Overcast SCT007 BKN080 OVC100 69.4 68.9 98% 29.84 0.0
15 09:55 W 7 10.00 Overcast SCT007 SCT011 OVC080 69.1 68.9 99% 29.84 0.0
15 09:35 SW 7 10.00 Rain OVC080 69.1 68.7 99% 29.84 0.0
15 09:15 SW 5 10.00 Drizzle SCT028 SCT050 OVC080 68.9 68.4 98% 29.84 0.0
15 08:55 W 5 7.00 Light Rain SCT024 SCT044 OVC080 68.2 67.6 98% 29.84 0.0
15 08:35 SW 5 10.00 Light Rain SCT042 OVC090 67.6 67.3 99% 29.84 0.0
15 08:15 Calm 10.00 Light Rain SCT039 BKN090 OVC110 67.5 67.1 99% 29.83 0.0
15 07:55 E 6 5.00 Rain SCT026 BKN055 OVC090 67.1 66.7 70.9 66.9 99% 29.82 0.0
15 07:35 Calm 5.00 Rain SCT029 SCT042 OVC090 67.3 67.1 99% 29.87 0.0
15 07:15 SE 7 10.00 Light Rain OVC100 67.6 67.3 99% 29.85 0.0
15 06:55 E 5 10.00 Mostly Cloudy BKN110 68.4 68 99% 29.82 0.0
15 06:35 NE 6 10.00 Light Rain SCT060 SCT070 BKN120 68 67.5 98% 29.82 0.0
15 06:15 N 3 7.00 Rain SCT060 BKN100 OVC120 68 67.6 99% 29.83 0.0
15 05:55 NW 7 G 16 7.00 Light Rain SCT008 BKN026 OVC090 68.5 68.2 99% 29.82 0.0
15 05:35 SW 12 G 26 3.00 Heavy Rain SCT006 BKN011 OVC030 70.3 70 99% 29.85 0.0
15 05:15 SW 3 10.00 Overcast SCT018 BKN030 OVC049 70.7 70.3 99% 29.84 0.0
15 04:55 Calm 10.00 Overcast SCT038 BKN046 OVC070 69.4 68.9 98% 29.83 0.0
15 04:35 Calm 10.00 Mostly Cloudy SCT041 BKN070 68.9 68.4 98% 29.83 0.0
15 04:15 Calm 7.00 Fair CLR 68.5 68 98% 29.83 0.0
15 03:55 Calm 7.00 Fair CLR 68 67.3 98% 29.82 0.0
15 03:35 Calm 10.00 Fair CLR 68 67.5 98% 29.81 0.0
15 03:15 Calm 7.00 Fair CLR 67.3 67.1 99% 29.82 0.0
15 02:55 Calm 7.00 Fair CLR 67.6 67.1 98% 29.84 0.0
15 02:35 Calm 10.00 Fair CLR 67.6 67.1 98% 29.84 0.0
15 02:15 Calm 10.00 Fair CLR 67.1 66.6 98% 29.84 0.0
15 01:55 Calm 10.00 Fair CLR 67.8 67.3 81.1 67.6 98% 29.85 0.0
15 01:35 Calm 10.00 Fair CLR 68.2 67.6 98% 29.86 0.0
15 01:15 S 3 10.00 Fair CLR 69.6 69.1 98% 29.86 0.0
15 00:55 SW 3 10.00 Fair CLR 69.1 68.5 98% 29.87 0.0
15 00:35 SW 5 10.00 Fair CLR 70.7 70.2 98% 29.87 0.0
15 00:15 SW 6 10.00 Fair CLR 69.8 69.1 98% 29.88 0.0
14 23:55 SW 5 10.00 Fair CLR 70 69.6 99% 29.87 0.0
14 23:35 SW 3 10.00 Fair CLR 70 69.8 99% 29.86 0.0
14 23:15 Calm 10.00 Fair CLR 70 69.4 98% 29.86 0.0
14 22:55 Calm 10.00 Fair CLR 70.3 70 99% 29.86 0.0
14 22:35 SW 3 10.00 Fair CLR 72.1 71.6 98% 29.87 0.0
14 22:15 SW 3 7.00 Fair CLR 73.4 71.6 94% 29.87 0.0
14 21:55 SW 5 10.00 Fair CLR 73 72 96% 29.87 0.0
14 21:35 SW 5 10.00 Fair CLR 74.8 72 91% 29.86 0.0
14 21:15 SW 5 10.00 Fair CLR 75.6 72 89% 75 29.86 0.0
14 20:55 SW 5 10.00 Fair CLR 77 72.7 87% 78 29.86 0.0
14 20:35 SW 5 10.00 Fair CLR 79.7 74.5 84% 84 29.87 0.0
14 20:15 Calm 10.00 Fair CLR 81 75.7 84% 87 29.86 0.0
14 19:55 SW 3 10.00 Fair CLR 81.3 75.9 84.7 81.3 84% 88 29.87 0.0
14 19:35 SW 5 10.00 Fair CLR 81.5 75 81% 88 29.87 0.0
14 19:15 SW 6 10.00 Fair CLR 82.4 74.7 78% 89 29.87 0.0
14 18:55 SW 9 10.00 Fair CLR 82 74.8 79% 89 29.87 0.0
14 18:35 SW 6 10.00 Partly Cloudy SCT032 SCT049 82.9 75 77% 90 29.87 0.0
14 18:15 SW 8 10.00 Partly Cloudy SCT030 SCT039 82 73.8 76% 88 29.88 0.0
14 17:55 SW 8 10.00 Partly Cloudy SCT033 SCT042 SCT050 82.9 74.1 75% 90 29.88 0.0
14 17:35 SW 8 10.00 Mostly Cloudy SCT033 SCT042 BKN055 82.6 74.3 76% 89 29.88 0.0
14 17:15 SW 8 10.00 Mostly Cloudy SCT031 BKN038 BKN044 83.7 74.8 75% 91 29.88 0.0
14 16:55 S 12 10.00 Mostly Cloudy BKN034 BKN044 BKN050 84 73.6 71% 91 29.88 0.0
14 16:35 SW 10 G 17 10.00 Partly Cloudy SCT034 83.8 73.2 70% 90 29.89 0.0
14 16:15 SW 13 10.00 Partly Cloudy SCT032 SCT039 84.7 73.4 69% 92 29.9 0.0
14 15:55 SW 9 10.00 Partly Cloudy SCT032 83.3 73.4 72% 90 29.9 0.0
14 15:35 SW 6 10.00 Fair CLR 81.5 72.5 74% 86 29.89 0.0
14 15:15 SW 8 10.00 Fair CLR 81.5 71.2 71% 86 29.9 0.0
14 14:55 SW 13 10.00 Partly Cloudy SCT031 81.7 70.9 70% 86 29.9 0.0
14 14:35 SW 9 10.00 Fair CLR 83.1 71.2 67% 88 29.89 0.0
14 14:15 SW 8 10.00 Fair CLR 82.4 70.7 68% 87 29.89 0.0
14 13:55 SW 8 G 17 10.00 Fair CLR 81.1 69.6 81.7 72.9 68% 85 29.9 0.0
14 13:35 SW 13 10.00 Partly Cloudy SCT038 81.1 70.3 70% 85 29.92 0.0
14 13:15 SW 12 G 18 10.00 Overcast SCT028 OVC040 80.4 70.5 72% 84 29.93 0.0
14 12:55 SW 12 G 18 10.00 Mostly Cloudy SCT031 BKN038 81.1 69.6 68% 85 29.93 0.0
14 12:35 SW 12 G 18 10.00 Fair CLR 80.8 69.6 69% 84 29.93 0.0
14 12:15 SW 13 G 20 10.00 Fair CLR 80.1 69.8 71% 83 29.94 0.0
14 11:55 SW 14 10.00 Partly Cloudy SCT026 SCT031 SCT100 78.3 69.4 74% 81 29.95 0.0
14 11:35 SW 15 10.00 Mostly Cloudy SCT026 BKN030 BKN100 78.4 69.1 73% 81 29.95 0.0
14 11:15 SW 9 G 16 10.00 Mostly Cloudy SCT026 BKN110 77.7 69.1 75% 80 29.97 0.0
14 10:55 SW 9 10.00 Mostly Cloudy SCT100 BKN120 76.8 68.4 75% 78 29.97 0.0
14 10:35 SW 9 10.00 Overcast SCT045 OVC090 75.2 67.8 78% 76 29.98 0.0
14 10:15 SW 10 10.00 Mostly Cloudy BKN090 75.4 67.1 76% 77 29.98 0.0
14 09:55 SW 8 10.00 Mostly Cloudy BKN100 74.7 68.2 80% 29.97 0.0
14 09:35 SW 8 10.00 Overcast OVC100 74.5 68.5 82% 29.97 0.0
14 09:15 W 13 G 20 10.00 Mostly Cloudy SCT090 BKN110 73.9 67.5 80% 29.99 0.0
14 08:55 SW 7 10.00 Mostly Cloudy BKN110 74.3 69.3 84% 29.99 0.0
14 08:35 SW 7 10.00 Partly Cloudy SCT090 SCT120 74.5 69.8 85% 29.98 0.0
14 08:15 S 5 10.00 Partly Cloudy SCT090 73.9 70.5 89% 29.99 0.0
14 07:55 SW 5 10.00 Partly Cloudy SCT090 SCT110 73 70.9 73.6 69.4 93% 29.99 0.0
14 07:35 SW 5 10.00 Mostly Cloudy SCT080 BKN110 72.3 70.3 94% 29.99 0.0
14 07:15 SW 6 10.00 Mostly Cloudy BKN085 72.5 70 92% 29.99 0.0
14 06:55 SW 5 10.00 Mostly Cloudy BKN085 72.9 69.8 90% 29.98 0.0
14 06:35 SW 8 10.00 Partly Cloudy SCT085 73.2 69.3 87% 29.99 0.0
14 06:15 SW 7 10.00 Partly Cloudy SCT075 73.4 69.1 86% 29.98 0.0
14 05:55 S 6 10.00 Partly Cloudy SCT035 SCT042 SCT050 72.9 68.5 86% 29.97 0.0
14 05:35 SE 5 10.00 Partly Cloudy SCT037 72 68.7 90% 29.97 0.0
14 05:15 S 5 10.00 Partly Cloudy SCT080 71.6 68.9 91% 29.97 0.0
14 04:55 SE 5 10.00 Partly Cloudy SCT080 SCT090 71.4 68.9 92% 29.98 0.0
14 04:35 S 3 10.00 Partly Cloudy SCT080 71.6 68.7 91% 29.99 0.0
14 04:15 SE 3 10.00 Fair CLR 71.8 68.5 90% 30 0.0
14 03:55 S 5 10.00 Partly Cloudy SCT080 72 68.5 89% 30 0.0
14 03:35 S 6 10.00 Partly Cloudy SCT070 71.6 68.5 90% 30.01 0.0
14 03:15 S 5 10.00 Partly Cloudy SCT070 SCT080 71.2 68.5 91% 30.01 0.0
14 02:55 S 5 10.00 Mostly Cloudy BKN080 70.9 69.4 95% 30.02 0.0
14 02:35 SW 5 10.00 Partly Cloudy SCT080 70 69.6 99% 30.03 0.0
14 02:15 SW 3 10.00 Fair CLR 69.8 69.1 98% 30.03 0.0
14 01:55 S 6 10.00 Fair CLR 71.6 69.8 81.5 68.2 94% 30.03 0.0
14 01:35 S 3 10.00 Fair CLR 69.8 69.3 98% 30.04 0.0
14 01:15 Calm 10.00 Fair CLR 69.1 68.5 98% 30.05 0.0
14 00:55 Calm 10.00 Fair CLR 69.1 68.7 99% 30.06 0.0
14 00:35 Calm 10.00 Fair CLR 69.1 68.7 99% 30.07 0.0
14 00:15 Calm 10.00 Fair CLR 68.7 68.2 98% 30.07 0.0
13 23:55 Calm 10.00 Fair CLR 68.5 68.2 99% 30.08 0.0
13 23:35 Calm 10.00 Fair CLR 68.9 68.4 98% 30.08 0.0
13 23:15 Calm 10.00 Partly Cloudy SCT060 SCT070 69.8 69.4 99% 30.08 0.0
13 22:55 Calm 10.00 Mostly Cloudy BKN060 BKN070 70.3 69.8 98% 30.08 0.0
13 22:35 Calm 10.00 Partly Cloudy SCT060 70 69.6 99% 30.08 0.0
13 22:15 Calm 10.00 Partly Cloudy SCT060 69.4 68.9 98% 30.07 0.0
13 21:55 Calm 7.00 Partly Cloudy SCT060 70.7 70.2 98% 30.07 0.0
13 21:15 Calm 10.00 Fair CLR 72.9 72.5 99% 30.09 0.0
13 20:55 Calm 10.00 Fair CLR 76.3 72.7 89% 77 30.09 0.0
13 20:35 Calm 10.00 Fair CLR 78.8 69.6 74% 81 30.09 0.0
13 20:15 SE 3 10.00 Fair CLR 80.4 69.1 68% 83 30.09 0.0
13 19:55 S 3 10.00 Fair CLR 81.5 69.8 86.7 81.5 68% 85 30.1 0.0
13 19:35 Calm 10.00 Fair CLR 82.8 68.5 62% 86 30.1 0.0
13 19:15 SW 3 10.00 Fair CLR 83.3 67.1 58% 86 30.1 0.0
13 18:55 S 5 10.00 Partly Cloudy SCT075 83.3 66.4 57% 86 30.1 0.0
13 18:35 SE 5 10.00 Overcast OVC075 83.5 67.3 58% 86 30.1 0.0
13 18:15 Calm 10.00 Mostly Cloudy BKN080 82.9 67.1 59% 86 30.11 0.0
13 17:55 SW 6 10.00 Partly Cloudy SCT075 84.9 66.6 54% 87 30.11 0.0
13 17:35 SW 5 10.00 Mostly Cloudy SCT050 BKN075 85.3 66.4 53% 88 30.12 0.0
13 17:15 SW 6 10.00 Partly Cloudy SCT050 84.7 64.8 51% 86 30.12 0.0
13 16:55 SW 3 10.00 Partly Cloudy SCT055 83.3 65.1 54% 85 30.12 0.0
13 16:35 SW 3 10.00 Partly Cloudy SCT055 SCT065 85.8 63.1 47% 87 30.13 0.0
13 16:15 Calm 10.00 Fair CLR 86.7 62.6 45% 87 30.14 0.0
13 15:55 SW 6 10.00 Partly Cloudy SCT055 86 64.2 48% 87 30.14 0.0
13 15:35 SW 6 10.00 Partly Cloudy SCT050 SCT090 85.5 64 49% 87 30.14 0.0
13 15:15 W 3 10.00 Partly Cloudy SCT050 SCT065 SCT090 84.7 64.6 51% 86 30.14 0.0
13 14:55 SW 8 10.00 Partly Cloudy SCT050 SCT065 SCT090 85.8 64.8 49% 87 30.14 0.0
13 14:35 W 3 10.00 Partly Cloudy SCT045 SCT050 84.9 66 53% 87 30.15 0.0
13 14:15 SW 3 10.00 Partly Cloudy SCT043 SCT055 84.2 65.7 54% 86 30.15 0.0
13 13:55 Calm 10.00 Partly Cloudy SCT043 82.9 65.7 84.2 66.2 56% 85 30.16 0.0
13 13:35 SW 5 10.00 Partly Cloudy SCT037 SCT045 SCT055 84 68 59% 87 30.17 0.0
13 13:15 Calm 10.00 Partly Cloudy SCT038 SCT046 SCT055 82.4 68 62% 85 30.17 0.0
13 12:55 Calm 10.00 Partly Cloudy SCT032 82.2 69.1 65% 86 30.17 0.0
13 12:35 W 3 10.00 Partly Cloudy BKN032 SCT043 82.6 70.3 67% 87 30.18 0.0
13 12:15 SW 5 10.00 Partly Cloudy SCT030 SCT043 82.4 69.8 66% 86 30.18 0.0
13 11:55 Calm 10.00 Fair CLR 80.2 69.1 69% 83 30.17 0.0
13 11:35 Calm 10.00 Fair CLR 79.9 70.9 74% 83 30.17 0.0
13 11:15 Calm 10.00 Fair CLR 79.2 72 79% 82 30.18 0.0
13 10:55 Calm 10.00 Fair CLR 78.4 72.3 82% 81 30.18 0.0
13 10:35 Calm 10.00 Fair CLR 77 72.5 86% 78 30.19 0.0
13 10:15 Calm 10.00 Fair CLR 76.1 72.1 88% 76 30.19 0.0
13 09:55 SW 3 10.00 Fair CLR 75.6 72.3 90% 75 30.19 0.0
13 09:35 SW 5 10.00 Fair CLR 73.9 72.1 94% 30.19 0.0
13 09:15 SW 3 10.00 Fair CLR 72.5 70.7 94% 30.19 0.0
13 08:55 Calm 10.00 Fair CLR 70.9 70.3 98% 30.19 0.0
13 08:35 Calm 10.00 Fair CLR 68.7 68.4 99% 30.19 0.0
13 08:15 Calm 10.00 Fair CLR 67.3 66.9 99% 30.19 0.0
13 07:55 Calm 7.00 Fair CLR 65.3 64.9 65.3 59.2 99% 30.19 0.0
13 07:35 Calm 7.00 Fair CLR 63.3 62.8 98% 30.18 0.0
13 07:15 Calm 7.00 Fair CLR 61.3 61 99% 30.17 0.0
13 06:55 Calm 4.00 Fog/Mist CLR 60.3 59.9 99% 30.17 0.0
13 06:35 Calm 4.00 Fog/Mist CLR 60.1 59.5 98% 30.17 0.0
Date Time (edt) Wind (mph) Vis. (mi.) Weather Sky Cond. Air Dwpt Max. Min. Relative Humidity Wind Chill (°F) Heat Index (°F) altimeter (in) sea level (mb) 1 hr 3 hr 6 hr
6 hour
Temperature (ºF) Pressure Precipitation (in)